Regional Weather Roundup
Issued by NWS

Home | Current Version | Previous Version | Text Only | Print | Product List | Glossary Off
Versions: 1 2 3 4 5 6 7 8 9 10 11 12 13 14 15 16 17 18 19 20 21 22 23 24 25 26 27 28 29 30 31 32 33 34 35 36 37 38 39 40 41 42 43 44 45 46 47 48 49 50

000
ASUS45 KABQ 221001
RWRNM
WEATHER ROUNDUP FOR NEW MEXICO
NATIONAL WEATHER SERVICE ALBUQUERQUE NM
300 AM MST MON DEC 22 2014

NOTE: "FAIR" MEANS FEW OR NO CLOUDS BELOW 12,000 FEET AGL WITH NO
       SIGNIFICANT WEATHER OR OBSTRUCTIONS TO VISION.

      THIS PRODUCT IS RELEASED AS TWO VERSIONS.  ONE VERSION NEAR
      THE TOP OF THE HOUR CONTAINING PRELIMINARY DATA FROM ALBUQUERQUE
      AND OTHER STATIONS.  A FINAL VERSION WITH ADDITIONAL DATA IS
      ISSUED ABOUT 10 MINUTES AFTER THE HOUR.

NMZ501-503-504-510>518-221100-
NORTHWEST PLATEAU/NORTHCENTRAL MOUNTAINS

CITY           SKY/WX    TMP DP  RH WIND       PRES   REMARKS
FARMINGTON     CLEAR     33  29  85 W7        29.92S WCI  27
SANTA FE       PTCLDY    41  29  62 W24G35    29.82R
TAOS           CLEAR     30  27  86 CALM      29.83R

$$
NMZ402-403-502-505>509-221100-
WESTCENTRAL MOUNTAINS/SOUTHWEST MOUNTAINS

CITY           SKY/WX    TMP DP  RH WIND       PRES   REMARKS
GALLUP         CLEAR     35  30  82 SW6       30.03R WCI  30
GRANTS         PTCLDY    32  28  85 CALM      30.01R
SILVER CITY    PTCLDY    37  30  75 W13       30.02R WCI  29

$$
NMZ407-409-411-412-221100-
SOUTHERN DESERTS

CITY           SKY/WX    TMP DP  RH WIND       PRES   REMARKS
LORDSBURG      FAIR      34  32  93 W5        30.02R WCI  30
DEMING         MOCLDY    45  32  60 W17       29.96F
ALAMOGORDO     CLOUDY    36  28  75 NE3       29.91S
T OR C         PTCLDY    49  31  49 E6        29.93R

$$
NMZ519>523-221100-
CENTRAL VALLEYS/CENTRAL HIGHLANDS

CITY           SKY/WX    TMP DP  RH WIND       PRES   REMARKS
ALBUQUERQUE    PTCLDY    35  29  78 S8        29.92S WCI  29
DOUBLE EAGLE   MOCLDY    32  28  83 SE8       29.91S WCI  25
MORIARTY ARPT  FAIR      42  29  60 NW7       29.85F
CLINES CORNERS PTCLDY    40  29  64 W24G36    29.84S WCI  29
BELEN          FAIR      41  31  69 SW8       29.93R
SOCORRO        FAIR      53  32  45 NW13G23   29.90F

$$
NMZ524>526-539-540-221100-
SOUTHCENTRAL MOUNTAINS

CITY           SKY/WX    TMP DP  RH WIND       PRES   REMARKS
RUIDOSO        MOCLDY    46  27  46 NW25G49   29.87F

$$
NMZ527>531-221100-
NORTHEAST HIGHLANDS/NORTHEAST PLAINS

CITY           SKY/WX    TMP DP  RH WIND       PRES   REMARKS
LAS VEGAS      PTCLDY    44  25  47 W20G30    29.75F
RATON          CLOUDY    38  29  70 NE7       29.70R WCI  33
CLAYTON        CLOUDY    41  34  76 N24G30    29.69R

$$
NMZ532>537-221100-
EASTCENTRAL PLAINS

CITY           SKY/WX    TMP DP  RH WIND       PRES   REMARKS
TUCUMCARI      CLEAR     45  29  53 W14       29.64S
CANNON AFB     PTCLDY    48  30  49 W17       29.67R
CLOVIS AIRPORT CLEAR     46  30  53 W15       29.66S

$$
NMZ028-029-538-221100-
SOUTHEAST PLAINS

CITY           SKY/WX    TMP DP  RH WIND       PRES   REMARKS
ROSWELL        CLOUDY    47  29  49 SE6       29.75F
ARTESIA        CLOUDY    54  28  37 SW17      29.77R
CARLSBAD       CLOUDY    60  28  29 W25G32    29.73S
HOBBS          CLOUDY    50  28  43 W18       29.74F


$$


USA.gov is the U.S. government's official web portal to all federal, state and local government web resources and services.